Location: Prague
(50.0830°N, 14.4670°E)
Time: 03:27:32
(UTC+02:00)

FO-29 - Pass Details

Date: 06 April 2023
Orbit: 799 x 1322 km, 98.5° (Epoch: 29 May)

Event Time Altitude Azimuth Distance (km) Brightness Sun altitude
Rises 04:50:13 0° 19° (NNE) 4,243 13.7 -15.6°
Reaches altitude 10° 04:53:30 10° 31° (NNE) 3,211 13.2 -15.1°
Maximum altitude 04:59:41 28° 88° (E) 2,009 11.9 -14.3°
Drops below altitude 10° 05:05:18 10° 145° (SE) 2,899 12.1 -13.5°
Sets 05:08:05 0° 157° (SSE) 3,766 12.5 -13.1°
